Regional Weather Roundup
Issued by NWS

Home | Current Version | Previous Version | Graphics & Text | Print | Product List | Glossary On
Versions: 1 2 3 4 5 6 7 8 9 10 11 12 13 14 15 16 17 18 19 20 21 22 23 24 25 26 27 28 29 30 31 32 33 34 35 36 37 38 39 40 41 42 43 44 45 46 47 48 49 50
781
ASUS45 KBOU 210210
RWRCO

WEATHER ROUNDUP FOR COLORADO
NATIONAL WEATHER SERVICE DENVER/BOULDER CO
700 PM MST MON NOV 20 2017

NOTE: "FAIR" INDICATES FEW OR NO CLOUDS BELOW 12000 FEET WITH NO
SIGNIFICANT WEATHER AND/OR OBSTRUCTIONS TO VISIBILITY.

COZ001>005-013-030-031-210300-
...NORTHWEST COLORADO...

CITY           SKY/WX    TMP DP  RH WIND       PRES   REMARKS
CRAIG          CLOUDY    34  25  69 CALM      30.10R
HAYDEN         CLOUDY    33  24  69 S7        30.10R WCI  27
MEEKER         FAIR      44  10  25 SW8       30.11R
RABBIT EARS PA CLOUDY    28  12  50 W10G17    30.15R WCI  19
STEAMBOAT SPGS CLOUDY    32  24  70 CALM      30.10R
WALDEN         FAIR      39   9  28 SW13      30.08R
$$

COZ006>008-011-210300-
...WEST CENTRAL VALLEYS...

CITY           SKY/WX    TMP DP  RH WIND       PRES   REMARKS
GRAND JUNCTION FAIR      36  19  50 NE5       30.16R
MONTROSE       FAIR      35  21  56 S3        30.17F
EAGLE          MOCLDY    34  22  61 N5        30.12R WCI  30
RIFLE          CLOUDY    35  25  66 NW3       30.15R
DELTA          MOCLDY    38  21  49 N5        30.18R
NUCLA          FAIR      34   9  35 E8        30.17F WCI  27
$$

COZ017>023-064>068-210300-
...SOUTHWEST COLORADO...

CITY           SKY/WX    TMP DP  RH WIND       PRES   REMARKS
DURANGO        FAIR      37  15  40 N3        30.15R
CORTEZ         FAIR      30  12  47 NE8       30.15S WCI  22
PAGOSA SPRINGS FAIR      32  13  45 CALM      30.17S
TELLURIDE      MOCLDY    38   7  28 SE5       30.23S
WOLF CREEK PAS FAIR      28  10  47 W9G17     30.30S WCI  20
$$

COZ009-010-012-014-032>034-037-058>063-210300-
...CENTRAL COLORADO...

CITY           SKY/WX    TMP DP  RH WIND       PRES   REMARKS
ASPEN          CLOUDY    34  23  64 CALM      30.11F
BUENA VISTA    FAIR      43   4  19 W17G25    30.03F
COPPER MTN     FAIR      30   0  27 MISG      30.19F
BERTHOUD PASS  FAIR      21  10  63 NW24G40   30.14S WCI   4
COTTONWOOD PAS FAIR      45   1  16 W36G60    30.04F
GUNNISON       FAIR      28  20  71 N3        30.17F
KREMMLING      FAIR      41   9  26 N7        30.09R
LEADVILLE      FAIR      33   1  25 VRB3      30.14R
MONARCH PASS   FAIR      27  -4  26 W41G48    30.28F WCI   8
SALIDA         FAIR      51  -4  10 W21G35    30.08F
SUNLIGHT       MOCLDY    28   1  31 SW17G26   30.21S WCI  16
WILKERSON PASS FAIR      32  -2  23 W18G37    30.08F WCI  20
$$

COZ069>075-210300-
...SAN LUIS VALLEY/SANGRE DE CRISTO MOUNTAINS...

CITY           SKY/WX    TMP DP  RH WIND       PRES   REMARKS
ALAMOSA        FAIR      30   3  31 NW3       30.08R
DEL NORTE      FAIR      31   6  34 W7        30.10S WCI  24
LA VETA PASS   FAIR      34   0  23 SW26G32     N/A  WCI  21
SAGUACHE       FAIR      39  -6  14 NW7       30.09F
$$

COZ035-036-038>040-210300-
...NORTHERN COLORADO FRONT RANGE...

CITY           SKY/WX    TMP DP  RH WIND       PRES   REMARKS
DENVER INTL AP MOCLDY    47  16  29 S13       29.83F
DMNS CITY PARK   N/A     60   5  11 SW12G24   29.85R
AURORA         MOCLDY    53  13  20 SE8       29.84F
FRONT RANGE AP MOCLDY    48  16  27 S9        29.86S
ERIE MUNI ARPT FAIR      50  11  21 CALM      29.85F
BOULDER MUN AP FAIR      54  12  19 CALM      29.82S
CENTENNIAL     MOCLDY    48  16  27 S7        29.86S
BROOMFIELD     NOT AVBL
FORT COLLINS   FAIR      59  13  16 W15G22    29.82R
LONGMONT       FAIR      60  10  14 CALM      29.85R
$$

COZ041-046-047-076>085-087-088-210300-
...PIKES PEAK/PALMER DIVIDE AND SOUTHERN FOOTHILLS...

CITY           SKY/WX    TMP DP  RH WIND       PRES   REMARKS
COLO. SPRINGS  MOCLDY    55  12  18 NW10      29.91R
A. F. ACADEMY  FAIR      53   8  16 W16       29.90F
SCHRIEVER AFB  MOCLDY    53  10  18 N10       29.90R
CHEYENNE MTN   MOCLDY    52  10  18 W7        29.87S
ELLICOTT         N/A    N/A N/A N/A N8        29.89R
FALCON         FAIR      47  11  23 NW7       29.94S
FORT CARSON    FAIR      54  12  19 N10       29.87R
LIMON          FAIR      40  11  30 CALM      29.87R
MONUMENT HILL  FAIR      39  16  38 SW3       29.95S
CANON CITY     FAIR      55  14  19 NW6       29.90R
WALSENBURG     FAIR      55   5  13 W12       29.92R
TRINIDAD       FAIR      50  14  23 NW9       29.90R
$$

COZ042>045-048>051-090-091-210300-
...NORTHEAST COLORADO...

CITY           SKY/WX    TMP DP  RH WIND       PRES   REMARKS
GREELEY ARPT   FAIR      50  17  27 CALM      29.82R
AKRON          FAIR      48  13  24 N6        29.81R
BURLINGTON     FAIR      51  10  19 NE8       29.82R
WRAY           NOT AVBL
YUMA           FAIR      50  18  27 NE6       29.80S
STERLING       FAIR      55  19  24 N9        29.77S
HOLYOKE        FAIR      55  19  24 N10       29.80S
FORT MORGAN    FAIR      54  11  17 N16       29.80S
$$

COZ086-089-092>099-210300-
...SOUTHEAST COLORADO...

CITY           SKY/WX    TMP DP  RH WIND       PRES   REMARKS
PUEBLO         FAIR      53  16  23 NW9       29.82R
LA JUNTA       FAIR      53  15  22 S5        29.80S
LAMAR          FAIR      38   7  27 S7        29.79R
SPRINGFIELD      N/A     35  12  38 W5        29.82R WCI  31
$$




USA.gov is the U.S. government's official web portal to all federal, state and local government web resources and services.